Simultaneous Nadir Overpasses (SNOs) Predictions

Prediction of SNOs between NOAA-19 and TERRA Satellite Orbit:

Table of predicted SNOs for the next 14.0 days since TLE Epoch: 6/11/2022
Index Date (NOAA-19) Time (NOAA-19) Lat,Lon (NOAA-19) SZA (NOAA-19 ) Date (TERRA) Time (TERRA) Lat,Lon (TERRA) SZA (TERRA ) Distance(km) Time Diff (sec)
1 06/12/2022 02:59:58 80.78, 171.00 59.49 06/12/2022 02:59:50 80.77, 170.83 59.46 3.15 8
2 06/14/2022 08:32:49 -80.78, -92.25 120.65 06/14/2022 08:33:30 -80.80, -92.25 120.62 1.81 41
3 06/14/2022 09:23:54 80.78, 75.04 59.36 06/14/2022 09:22:57 80.77, 75.09 59.33 1.18 57
4 06/16/2022 14:56:45 -80.79, 171.70 120.76 06/16/2022 14:56:38 -80.77, 171.63 120.78 2.02 7
5 06/18/2022 20:29:46 80.79, -91.49 59.19 06/18/2022 20:30:17 80.80, -91.50 59.21 1.27 31
6 06/18/2022 21:20:40 -80.78, 75.99 120.80 06/18/2022 21:19:44 -80.80, 76.14 120.80 3.13 56
7 06/21/2022 02:53:41 80.78, 172.76 59.17 06/21/2022 02:53:24 80.79, 172.60 59.15 3.00 17
8 06/23/2022 08:26:32 -80.79, -90.72 120.85 06/23/2022 08:27:04 -80.81, -90.62 120.82 2.49 32



Historial Predications of SNOs between NOAA-19 and TERRA
